Change the Weather History Date:

Monday, October 29, 2012

  Actual Average Record
Temperature  
Mean Temperature 72 °F -  
Max Temperature 91 °F 80 °F 93 °F (2007)
Min Temperature 54 °F 56 °F 48 °F (1996)
Cooling Degree Days 8    
Growing Degree Days 22 (Base 50)    
Moisture  
Dew Point 28 °F    
Average Humidity 23    
Maximum Humidity 39    
Minimum Humidity 8    
Precipitation  
Precipitation 0.00 in - - ()
Sea Level Pressure  
Sea Level Pressure 30.03 in    
Wind  
Wind Speed 4 mph (WSW)    
Max Wind Speed 7 mph    
Max Gust Speed -    
Visibility 10 miles    
Events      
Averages and records for this station are not official NWS values.
T = Trace of Precipitation, MM = Missing Value Source: NWS Daily Summary

Daily Weather History Graph

Daily Weather History Graph

Search for Another Location

Airport or City:

Trip Planner

Search our weather history database for the weather conditions in past years. The results will help you decide how hot, cold, wet, or windy it might be!

Date:

Astronomy

Oct. 29, 2012 Rise Set
Actual Time 6:58 AM PDT 5:53 PM PDT
Civil Twilight 6:32 AM PDT 6:19 PM PDT
Nautical Twilight 6:03 AM PDT 6:48 PM PDT
Astronomical Twilight 5:35 AM PDT 7:16 PM PDT
Moon 5:51 PM PDT (10/29) 6:51 AM PDT (10/29)
Length of Visible Light 11h 46m
Length of Day
10h 55m
Full, 100% of the Moon is Illuminated
Oct 29
Full
Oct 29
Full
Nov 6
Last Quarter
Nov 13
New
Nov 20
First Quarter

Hourly Weather History & Observations

Time (PDT) Temp. Dew Point Humidity Pressure Visibility Wind Dir Wind Speed Gust Speed Precip Events Conditions
12:56 AM 57.9 °F 27.0 °F 31% 30.00 in 10.0 mi West 5.8 mph - N/A   Clear
1:56 AM 57.0 °F 25.0 °F 29% 30.01 in 10.0 mi West 5.8 mph - N/A   Clear
2:56 AM 57.0 °F 23.0 °F 27% 30.01 in 10.0 mi West 5.8 mph - N/A   Clear
3:56 AM 55.9 °F 25.0 °F 30% 30.01 in 10.0 mi WSW 6.9 mph - N/A   Clear
4:56 AM 55.0 °F 21.9 °F 28% 30.01 in 10.0 mi West 5.8 mph - N/A   Clear
5:56 AM 54.0 °F 25.0 °F 33% 30.02 in 10.0 mi WSW 5.8 mph - N/A   Clear
6:56 AM 55.9 °F 21.9 °F 27% 30.04 in 10.0 mi WSW 4.6 mph - N/A   Clear
7:56 AM 59.0 °F 26.1 °F 28% 30.06 in 10.0 mi SW 4.6 mph - N/A   Clear
8:56 AM 68.0 °F 28.0 °F 22% 30.09 in 10.0 mi WNW 3.5 mph - N/A   Clear
9:56 AM 73.9 °F 28.9 °F 19% 30.10 in 10.0 mi West 4.6 mph - N/A   Clear
10:56 AM 81.0 °F 25.0 °F 13% 30.09 in 10.0 mi Calm Calm - N/A   Clear
11:56 AM 84.9 °F 27.0 °F 12% 30.08 in 10.0 mi North 3.5 mph - N/A   Clear
12:56 PM 86.0 °F 28.0 °F 12% 30.04 in 10.0 mi Calm Calm - N/A   Clear
1:56 PM 89.1 °F 28.9 °F 12% 30.02 in 10.0 mi East 3.5 mph - N/A   Clear
2:56 PM 91.0 °F 23.0 °F 8% 30.00 in 10.0 mi North 3.5 mph - N/A   Clear
3:56 PM 89.1 °F 27.0 °F 11% 30.00 in 10.0 mi SE 3.5 mph - N/A   Clear
4:56 PM 88.0 °F 30.9 °F 13% 29.99 in 10.0 mi Calm Calm - N/A   Clear
5:56 PM 84.0 °F 30.9 °F 15% 29.99 in 10.0 mi SW 4.6 mph - N/A   Clear
6:56 PM 75.9 °F 30.9 °F 19% 30.00 in 10.0 mi Calm Calm - N/A   Clear
7:56 PM 73.0 °F 35.1 °F 25% 30.00 in 10.0 mi Calm Calm - N/A   Clear
8:56 PM 63.0 °F 30.0 °F 29% 30.01 in 10.0 mi WSW 5.8 mph - N/A   Clear
9:56 PM 64.0 °F 30.0 °F 28% 30.02 in 10.0 mi Calm Calm - N/A   Clear
10:56 PM 61.0 °F 36.0 °F 39% 30.02 in 10.0 mi SW 3.5 mph - N/A   Clear
11:56 PM 60.1 °F 32.0 °F 35% 30.02 in 10.0 mi West 5.8 mph - N/A   Clear